STARLINK-33804, 63511

Orbit data source: Space-Track

STARLINK-33804, 63511 is a payload satellite owned by SpaceX/Seattle (US) in LEO that was launched on Mon, 07 Apr 2025 UTC via an FALCON 9 launch vehicle from the Air Force Western Test Range (AFWTR). Payload-class satellites include a variety of spacecraft equipped with specific instruments for various scientific and technological missions. These include communications satellites like Starlink; space stations such as the ISS; scientific satellites like the Hubble; Earth observation satellites from companies like Planet Labs, Umbra, and HawkEye 360; GPS; miniature CubeSats for education and research; and military/defense satellites.

Loading next visibility...
Identifier
63511, 2025-071U
Orbit
LEO
Country
Flag of USUS
Related business
Manufacturer
SpaceX/Seattle
Mission
Operational Commercial Communications
Bus & Motor
STARLINK V2MO, Unknown motor
Mass
575 kg wet, ~530 kg dry
Launch date (UTC)
2025-04-07 (1 year ago)
Launch vehicle
FALCON 9
Launch site
Air Force Western Test Range (AFWTR)
Object type
Payload
Rocket body
Debris
Shape & HBR
Box + 1 Pan, 17.7 m
Radar Cross Section
41.120 m², Large (>1 m²)

Expand to show TLE details & history
Last TLE update: 15 hours ago

TLE from 15 hours ago
0 STARLINK-33804
1 63511U 25071U   26262.78731203  .00014323  00000-0  47235-3 0  9997
2 63511  53.1585 317.1510 0001470 128.9113 231.2020 15.31704176 82139
Epoch: 2026-09-19T18:53Z
TLE epoch observation values (Epoch: 2026-09-19T18:53:43.759Z)
Latitude
0.00001°
Longitude
35.02785°
Altitude
472.259 km
Speed
7.631 km/s
True Right ascension
21h 08m 36s
True Declination
0° 00' 00"
Sunlit
Object was in full shadow at epoch
Visualization orbit readout
Latitude
Unknown
Longitude
Unknown
Altitude
Unknown
Speed
Unknown
Apparent Right ascension
Unknown
Apparent Declination
Unknown
Sunlit
N/A
Visualization observer readout
Local Sidereal Time
02:41:18
Azimuth
Unknown
Elevation
Unknown
Doppler factor
Unknown
Orbital elements
Apogee altitude
471.991 km
Perigee altitude
469.978 km
Semi-major axis
6,849.121 km
Eccentricity
0.00015
Inclination
53.1585°
RAAN
317.151°
Arg. of periapsis
128.9113°
True anomaly
231.18887°
Mean anomaly
231.202°
Eccentric anomaly
231.19544°
Mean motion
3.82905 °/min
Orbital period
94.02 mins
BSTAR
0.00047235
Loading maneuver chart data...
Computing Atmospheric mass density...
Loading historical data...
Loading historical data...
Loading historical data...
Loading historical data...
Loading historical data...
Loading historical data...
Loading historical data...

Documentation

Showing up to 5 results
|